Location: Unspecified
(0.0000°N, 0.0000°E)
Time: 04:07:30
(UTC+00:00)

N. Korean satellite - Pass Details

Date: 15 November 2019
Orbit: 456 x 506 km, 97.2° (Epoch: 10 November)

Event Time Altitude Azimuth Distance (km) Brightness Sun altitude
Rises 18:15:00 0° 200° (SSW) 2,495 10.8 -7.2°
Reaches altitude 10° 18:17:47 10° 225° (SW) 1,626 10.4 -7.9°
Maximum altitude 18:19:43 14° 259° (W) 1,385 10.3 -8.3°
Drops below altitude 10° 18:21:41 10° 293° (WNW) 1,636 10.0 -8.8°
Sets 18:24:30 0° 319° (NW) 2,522 10.5 -9.5°
